{"data":{"norad_id":62167,"intl_designator":"2024-225E","name":"STARLINK-32506","alt_names":[],"object_type":"PAYLOAD","status":"ACTIVE","operator":null,"country":"US","launch_date":"2024-11-30","launch_site_code":"AFWTR","launch_vehicle":null,"mission":null,"orbit_class":"UNKNOWN","rcs_meters":null,"size_class":null,"mass_kg":null,"dimensions":null,"purposes":["comms"],"wikipedia_slug":null,"has_3d_model":false,"image_url":null,"decayed_at":null,"tle_current":{"epoch":"2026-09-19T02:44:26.783232Z","epoch_age_seconds":301305,"freshness":"STALE","line1":"1 62167U 24225E   26262.11419888  .00004412  00000+0  37729-3 0  9996","line2":"2 62167  70.0020  36.9447 0003205 266.7748  93.3044 14.98335512 98849","mean_motion":14.98335512,"eccentricity":0.0003205,"inclination_deg":70.002,"raan_deg":36.9447,"arg_perigee_deg":266.7748,"mean_anomaly_deg":93.3044,"bstar":0.00037729,"rev_number":9884,"period_min":96.106645572183,"perigee_km":569.81131423285,"apogee_km":574.26637694987,"semimajor_km":6950.1758455914,"source":"CELESTRAK","updated_at":"2026-09-22T09:00:49.534724Z"}}}